Temp
6 6 6 5 5 6 6 6 6 5 5 5 5 5 5 5 5 5 5 5 5 5 5 5 5 5 5 5 5 5 5 5 5 5 5 5 5 5 5 5 5 5 5 5 5 5 5 4 4 4 4 4 4 4 4 4 4 4 4 4 4 4 4 4 4 4 4 4 4 4 4 4 4 4 4 4 4 4 4 4 4 4 4 4 4
6 6 6 6 6 6 6 6 6 5 5 5 5 5 5 5 5 5 5 5 5 5 5 5 5 5 5 5 5 5 5 4 4 4 4 4 4 4 4 5 5 5 5 5 5 5 4 4 4 4 4 4 4 4 4 3 4 4 4 4 4 4 4 4 4 4 4 4 4 4 4 4 4 4 4 4 4 4 4 4 4 4 4 4 4
7 6 6 6 6 6 6 6 6 5 5 5 5 5 5 5 5 5 5 5 5 5 4 4 5 5 5 5 5 5 4 4 4 4 4 4 4 4 4 4 4 5 5 5 4 4 4 4 4 4 4 4 4 4 3 3 3 4 4 4 4 4 4 4 4 4 4 4 4 4 4 4 4 4 4 4 4 4 4 4 4 4 4 4 4
7 7 6 6 6 6 6 6 5 5 5 5 5 5 4 4 4 5 5 5 5 4 4 4 4 5 5 5 5 5 4 4 4 4 4 4 4 4 4 4 4 4 4 4 4 4 4 4 4 4 4 4 4 4 4 4 4 4 3 4 4 4 4 4 4 4 4 4 4 4 4 4 4 4 4 4 4 4 4 4 4 4 4 3 3
7 7 6 6 6 6 6 5 5 5 5 5 5 5 4 4 4 4 5 5 4 4 4 4 4 4 4 5 5 4 4 3 4 4 4 4 4 4 4 4 4 4 4 4 4 4 4 4 4 4 4 4 4 4 4 4 4 4 3 3 4 4 4 4 4 4 4 4 4 4 4 4 4 4 4 4 4 4 4 3 3 3 3 3 3
6 6 6 6 6 6 5 5 5 5 5 5 5 4 4 4 4 4 4 4 4 4 4 4 4 4 4 4 4 4 4 3 3 4 3 3 3 4 3 3 4 4 4 4 4 4 4 4 4 4 4 4 4 4 4 4 4 3 3 3 4 4 4 4 4 4 4 4 4 4 4 4 4 4 4 4 4 3 3 3 3 3 3 3 3
6 6 6 6 5 5 5 5 5 5 5 5 4 4 4 4 4 4 4 4 4 3 3 4 4 4 4 4 4 4 3 3 3 3 3 2 3 3 3 3 3 4 4 4 4 4 4 4 4 4 4 4 4 4 4 4 4 3 3 3 4 4 4 4 4 4 4 4 4 4 4 4 4 4 3 3 3 3 3 3 3 3 3 3 3
6 6 6 6 5 5 5 5 5 5 4 4 4 4 4 4 4 4 4 4 3 3 3 3 3 3 3 3 3 3 3 3 3 3 2 2 3 3 3 3 3 3 4 4 4 3 3 4 4 4 4 4 4 4 4 3 3 3 3 3 3 4 4 4 4 4 4 4 4 4 4 4 3 3 3 3 3 3 3 3 3 3 3 3 3
6 6 6 6 5 5 5 5 5 5 5 4 4 4 4 4 4 4 4 4 3 3 3 3 3 3 3 3 3 3 3 3 3 3 3 3 3 3 3 3 3 3 4 3 3 3 3 3 3 4 4 4 3 3 3 3 3 3 3 3 3 3 4 4 4 4 4 4 4 4 3 3 3 3 3 3 3 3 3 3 3 3 3 3 3
6 6 6 6 5 5 5 5 5 5 5 4 4 4 4 4 4 4 4 4 3 3 3 3 3 3 3 3 3 3 3 3 3 3 3 3 3 3 3 3 3 3 4 3 3 3 3 3 3 3 3 3 3 3 3 3 3 3 3 3 3 4 4 4 4 4 4 3 3 3 3 3 3 3 3 3 3 3 3 3 3 3 3 3 4
6 6 6 6 6 5 5 5 5 5 5 4 4 4 4 3 3 3 3 3 3 3 3 3 3 3 3 2 3 3 3 2 3 3 3 3 3 3 3 3 3 3 3 3 3 3 3 3 3 3 3 3 3 3 3 3 3 3 3 3 3 3 3 3 3 3 3 3 3 3 3 3 3 3 3 3 3 3 3 3 3 3 4 4 4
6 6 6 6 5 5 5 5 5 5 5 4 4 4 4 3 3 3 3 3 3 3 3 3 3 3 2 2 3 3 3 3 3 3 3 3 3 3 3 3 3 3 3 3 3 3 3 3 3 3 3 3 3 3 3 3 3 3 3 3 3 3 3 3 3 3 3 3 3 3 3 3 3 3 3 3 3 3 3 3 3 3 4 4 4
6 6 5 5 5 5 5 5 5 5 5 5 4 4 4 4 4 4 4 3 3 3 3 2 2 2 2 2 2 2 3 3 3 3 3 3 3 3 3 3 3 3 3 3 3 3 3 3 3 3 3 3 3 3 3 3 3 3 3 3 3 3 3 3 3 3 3 3 3 3 3 3 3 3 3 3 3 3 3 3 3 4 4 4 4
5 5 5 5 5 5 6 5 5 5 5 5 5 4 4 4 4 4 3 3 3 3 2 2 2 2 2 2 3 2 3 3 3 3 3 3 3 3 3 3 3 3 3 3 3 3 3 3 3 3 3 3 3 3 3 3 3 3 3 3 3 3 3 3 3 3 3 3 3 3 3 3 3 3 3 3 3 3 3 3 3 3 3 3 3
5 5 5 5 6 6 6 6 5 5 5 5 5 5 4 4 4 4 3 3 3 3 2 2 2 2 2 2 3 3 3 3 3 3 3 3 3 3 3 3 3 3 3 3 3 3 3 3 3 3 3 3 3 3 3 3 3 3 3 3 3 3 3 3 3 3 3 3 3 3 3 3 3 3 3 3 3 3 3 3 3 3 3 3 3
5 5 5 6 6 6 6 5 5 5 5 5 5 4 4 4 4 3 4 4 3 3 2 2 2 2 2 2 2 3 3 3 3 3 3 3 3 3 3 3 3 3 3 3 3 3 3 3 3 3 3 3 3 3 3 3 3 3 3 3 3 3 3 3 3 3 3 3 3 3 3 3 3 3 3 3 3 3 3 3 3 3 3 3 3
5 5 5 5 5 5 5 5 4 4 4 4 4 4 4 4 4 4 3 4 3 3 2 2 2 2 2 2 2 3 3 3 3 3 3 3 3 3 3 3 3 3 3 3 3 3 3 3 3 3 3 3 3 3 3 3 3 3 3 3 3 3 3 3 3 3 3 3 3 3 3 3 3 3 3 3 3 3 3 3 3 3 3 3 3
5 5 5 5 5 5 5 4 4 4 4 4 4 4 4 4 4 4 4 3 3 3 3 2 2 2 2 2 2 2 2 3 3 3 3 3 3 3 3 3 3 3 3 3 3 3 3 3 3 3 3 3 3 3 3 3 3 3 3 3 3 3 3 3 3 3 2 2 3 3 3 2 2 3 3 3 3 3 3 3 3 3 3 3 2
5 5 5 5 5 5 5 4 4 4 4 4 4 4 4 4 4 4 4 3 3 4 3 3 2 2 2 2 2 2 2 2 3 3 3 3 3 3 3 3 3 3 3 3 3 3 3 3 3 3 3 3 3 3 3 3 3 3 3 3 3 3 3 3 3 2 2 2 3 3 2 2 2 2 2 2 3 3 3 3 3 2 2 2 2
5 5 5 5 5 5 5 4 4 4 4 4 4 4 4 4 4 4 3 3 3 3 3 3 2 2 2 2 2 2 2 2 3 3 3 3 3 3 3 3 3 3 3 3 3 3 3 3 3 3 3 3 3 3 3 3 3 3 3 3 3 3 2 3 2 2 2 2 3 3 2 2 2 2 2 2 2 2 2 2 2 2 2 2 2
4 5 5 5 5 5 5 5 4 4 4 4 4 4 4 4 4 4 3 3 3 3 3 3 2 2 2 2 2 2 2 3 3 3 3 3 3 3 4 3 3 3 3 3 3 3 3 3 3 3 3 3 3 3 3 3 3 3 3 3 3 3 2 2 2 2 2 2 3 2 2 2 2 2 2 2 2 2 2 2 2 2 2 1 1
4 5 5 5 5 5 5 5 5 5 5 5 4 4 4 4 4 4 3 3 3 3 3 3 2 2 2 2 2 2 3 3 3 3 3 3 3 4 3 3 3 3 3 3 3 3 3 3 3 3 3 3 3 3 3 3 3 3 3 3 3 3 2 2 2 2 2 2 2 2 2 2 1 1 1 2 2 2 2 2 2 1 1 1 1
5 5 5 4 4 4 5 5 5 5 5 4 4 4 4 4 4 4 3 3 3 3 3 2 2 2 2 2 2 2 2 2 3 3 3 3 3 3 3 3 3 3 3 3 3 3 3 3 3 3 3 3 3 3 3 3 3 3 3 3 3 2 2 2 2 2 2 2 2 2 2 2 1 1 1 1 1 2 1 1 1 1 1 1 1
5 5 4 4 4 4 4 4 4 4 4 4 4 4 4 4 4 4 3 3 3 3 2 2 1 2 2 2 2 2 2 2 2 3 3 3 3 3 3 3 3 3 3 3 3 3 3 3 3 3 3 3 3 3 3 2 2 2 2 3 3 2 2 2 2 2 2 2 2 2 2 1 1 1 1 1 1 1 1 1 1 1 1 0 0
5 5 4 4 4 4 4 4 4 4 4 4 4 4 4 3 3 3 3 3 3 3 2 2 1 1 1 1 2 2 2 2 2 3 3 3 3 3 3 3 3 3 3 3 3 3 3 3 3 3 3 3 3 3 2 2 2 2 2 2 2 2 2 2 2 2 2 2 2 2 2 1 1 1 1 1 1 1 1 1 1 1 0 0 0
5 5 4 4 4 4 3 3 3 3 4 4 4 4 4 3 3 3 3 3 3 3 2 2 1 1 1 2 2 2 2 2 3 3 3 3 3 3 3 3 3 3 3 3 3 3 3 3 3 3 3 3 3 3 2 2 2 2 2 2 2 2 2 2 2 2 2 2 2 2 2 2 1 1 1 1 1 1 1 1 1 0 0 -0 -0
5 5 4 4 4 4 3 3 3 3 3 4 3 3 3 3 3 3 4 3 3 3 2 2 2 1 1 2 2 2 2 3 3 3 3 3 3 3 3 3 3 3 3 3 3 3 3 3 3 3 3 3 3 3 3 3 2 2 2 2 2 2 2 2 2 2 2 2 2 2 2 1 1 1 1 1 1 1 1 1 0 0 -0 -0 -0
5 5 4 4 4 4 3 3 3 3 3 3 3 3 3 3 3 3 3 3 4 4 3 2 2 2 1 1 2 2 3 3 3 3 3 3 3 3 3 3 3 3 3 4 4 3 3 3 3 3 3 3 3 3 3 3 2 2 2 2 2 2 2 2 2 2 2 2 1 1 1 1 1 1 1 1 1 1 1 0 0 -0 -0 -0 -0
5 5 5 4 4 4 3 3 3 3 3 3 3 3 3 3 3 3 3 3 3 4 3 3 3 2 2 2 2 2 2 3 3 3 3 3 3 3 3 3 3 3 3 3 3 3 3 4 4 3 3 3 2 3 3 2 2 2 2 2 2 2 2 2 2 2 1 1 1 1 1 1 1 1 1 1 1 1 0 0 0 -0 -0 -1 -1
5 5 5 4 4 4 3 3 3 3 3 3 3 3 3 3 3 3 3 3 3 4 4 3 3 3 3 2 2 2 2 3 3 3 3 3 3 3 3 3 3 3 3 3 3 3 3 3 3 3 3 3 2 2 2 2 2 2 2 2 2 1 1 1 1 1 1 1 1 1 1 1 1 1 0 0 0 0 0 0 0 -0 -0 -1 -1
5 5 5 4 4 4 3 3 3 3 3 3 3 3 3 3 3 3 3 3 4 4 3 3 3 3 3 3 3 2 2 2 3 3 3 3 3 3 3 3 3 3 3 3 3 2 3 3 3 3 3 2 2 2 2 2 2 2 2 2 2 1 1 1 1 1 1 1 1 1 1 1 0 0 0 0 0 0 0 0 -0 -0 -1 -1 -1
5 5 5 4 4 4 3 3 3 3 3 3 3 3 3 3 3 3 3 3 4 4 4 3 3 3 3 3 3 3 2 2 3 3 3 3 3 3 3 3 3 3 3 3 3 3 3 3 3 3 2 2 2 2 2 2 2 2 2 2 2 1 1 1 1 1 1 1 1 1 1 0 0 0 0 0 0 0 0 0 -0 -0 -1 -1 -1
5 5 5 4 4 4 3 3 3 3 3 3 3 3 3 3 3 3 3 3 3 3 3 3 3 3 3 3 3 2 2 2 2 2 2 2 3 3 2 3 3 3 3 3 3 3 3 3 3 2 2 2 2 2 2 3 2 2 2 2 2 1 1 1 1 1 0 0 0 0 0 0 0 0 -0 -0 -0 -0 -0 -0 -0 -0 -1 -1 -1
5 5 5 4 4 4 4 3 3 3 3 3 3 3 3 3 3 3 3 3 3 3 3 3 3 3 3 3 3 2 2 2 2 2 2 2 2 2 2 2 3 3 3 3 3 3 3 3 3 2 2 2 2 2 2 2 2 2 2 1 1 1 1 1 1 0 0 0 0 0 0 0 -0 -0 -0 -0 -0 -0 -0 -0 -0 -0 -1 -1 -1
5 5 5 4 4 4 3 3 3 3 3 3 3 4 3 3 3 3 3 3 3 3 3 3 3 3 3 3 2 2 2 2 2 2 2 2 2 2 2 2 2 3 3 3 2 2 2 2 2 2 2 2 2 2 2 2 2 2 1 1 1 1 1 1 1 0 0 -0 -0 -0 -0 -0 -0 -0 -0 -0 -0 -1 -1 -1 -0 -0 -1 -1 -1
5 5 5 5 4 4 3 3 3 3 3 3 3 4 4 4 3 3 3 3 3 3 3 3 3 2 2 2 2 2 2 2 2 2 2 2 2 2 2 2 2 2 2 2 2 2 2 2 2 2 2 2 2 2 2 2 2 2 1 1 1 1 1 1 0 -0 -0 -0 -0 -0 -0 -0 -1 -1 -0 -0 -0 -1 -1 -1 -1 -1 -1 -1 -1
6 6 5 5 4 4 3 3 3 3 3 3 3 3 3 3 3 3 3 3 3 3 3 3 3 3 3 3 2 2 2 2 2 2 2 2 2 2 2 2 2 2 2 2 2 2 2 2 2 2 2 2 2 2 2 2 2 2 2 1 1 1 1 1 0 -0 -0 -0 -0 -0 -0 -1 -1 -0 -0 -0 -0 -0 -0 -0 -1 -1 -1 -1 -1
6 6 5 5 5 4 3 3 3 3 3 3 3 3 3 3 3 3 3 3 3 3 3 3 3 3 3 3 2 2 2 2 2 2 2 2 2 2 2 2 2 2 2 2 2 1 2 2 2 2 2 2 2 2 1 1 1 2 2 1 1 1 1 1 0 -0 -0 -0 -0 -1 -1 -1 -0 -0 0 0 0 0 -0 -0 -0 -1 -1 -1 -1
6 6 6 5 5 4 3 3 3 3 3 3 3 3 3 3 2 2 2 2 3 3 2 2 2 2 2 2 2 2 2 2 2 2 2 2 2 2 2 2 2 1 1 1 1 1 2 2 1 1 2 2 2 1 1 1 1 1 1 1 1 1 1 1 0 -0 -0 -0 -0 -0 -0 -0 0 0 0 0 0 0 0 -0 -0 -0 -0 -1 -1
6 6 6 5 5 4 3 3 3 3 3 3 3 3 2 2 2 2 2 2 2 2 2 2 2 2 2 2 2 2 2 2 2 2 2 2 2 2 2 2 2 2 1 1 1 1 1 2 1 1 1 1 1 1 1 1 1 2 2 1 1 1 1 0 0 -0 -1 -1 -0 -0 -0 0 0 0 0 0 0 -0 -0 -0 -0 -1 -1 -1 -1
6 6 6 5 4 4 3 3 3 3 3 3 3 3 2 2 2 2 2 2 2 2 2 2 2 2 1 1 2 2 2 2 2 2 2 2 2 2 2 2 2 1 1 1 1 1 1 1 1 1 1 1 1 1 1 2 2 1 1 1 1 1 0 -0 -0 -0 -0 -0 -0 0 0 0 0 -0 -0 -0 -0 -1 -1 -1 -1 -1 -1 -2 -2
6 6 5 5 4 4 3 3 3 3 3 3 3 3 2 2 2 2 2 2 2 2 2 1 2 2 2 2 2 2 2 2 2 2 1 1 1 2 2 2 1 1 1 1 1 1 1 1 1 1 1 1 1 2 2 2 1 1 1 1 1 1 1 0 0 0 0 0 0 0 0 0 -0 -0 -1 -1 -1 -1 -1 -2 -2 -2 -2 -2 -2
5 5 5 5 4 4 3 2 2 2 2 2 3 2 2 2 2 2 2 2 2 2 1 1 1 1 1 2 2 2 1 1 1 1 1 1 1 1 1 1 1 2 1 1 1 1 1 1 1 1 1 1 1 1 1 1 1 1 1 1 1 1 1 1 1 1 1 1 0 0 0 -0 -0 -1 -1 -1 -1 -1 -2 -2 -2 -2 -2 -2 -2
5 5 5 4 4 4 3 2 2 2 2 2 2 2 2 2 1 1 1 1 1 1 1 1 1 1 1 1 1 1 1 1 1 1 1 1 1 1 1 1 1 1 1 1 1 1 1 1 1 1 1 1 1 1 1 1 1 1 1 1 1 1 1 1 1 0 0 0 0 -0 -0 -0 -1 -1 -1 -1 -1 -1 -2 -2 -2 -2 -2 -2 -2
5 5 4 4 4 3 3 2 2 2 2 2 2 2 1 1 1 1 1 1 1 1 1 1 1 1 1 1 1 1 0 0 1 1 1 1 1 1 1 1 1 1 1 1 1 1 1 2 1 1 1 1 1 1 1 1 1 1 1 1 1 0 0 0 0 -0 -0 -0 -0 -0 -1 -1 -1 -1 -1 -1 -1 -1 -1 -2 -2 -2 -2 -2 -2
4 4 4 3 3 3 2 2 2 2 2 2 2 1 1 1 1 0 0 0 0 0 0 0 0 0 0 0 0 0 0 0 1 1 1 1 1 1 1 1 1 1 1 1 1 1 1 1 1 1 1 1 1 1 1 0 0 0 0 0 0 -0 -0 -0 -0 -0 -1 -1 -1 -1 -1 -1 -1 -1 -2 -2 -1 -1 -2 -2 -2 -2 -2 -2 -2
4 3 3 3 2 2 2 2 2 1 1 1 1 1 1 0 0 0 0 0 0 0 0 0 0 0 0 0 0 0 0 0 0 1 1 0 0 0 0 0 1 1 1 1 1 1 1 1 1 1 1 1 1 0 0 0 -0 -0 -0 -1 -1 -1 -1 -0 -0 -1 -1 -1 -1 -1 -1 -1 -1 -2 -2 -2 -2 -2 -2 -2 -2 -2 -2 -2 -2
3 3 2 2 2 2 1 1 1 1 1 1 1 1 1 0 0 0 0 0 0 0 0 0 0 0 0 0 0 0 -0 -0 0 0 0 0 0 0 0 0 0 0 0 1 1 1 1 1 0 0 0 0 0 -0 -0 -0 -1 -1 -1 -1 -1 -1 -1 -1 -1 -1 -1 -1 -1 -1 -1 -1 -1 -1 -2 -2 -2 -2 -2 -2 -2 -2 -2 -2 -3
2 2 2 2 2 1 1 1 1 0 0 1 1 0 0 0 0 0 0 0 0 0 0 0 0 0 -0 -0 -0 0 -0 -0 -0 -0 -0 -0 0 0 -0 0 0 0 0 1 1 1 1 0 0 0 -0 -0 0 -0 -1 -1 -1 -1 -1 -1 -1 -1 -1 -1 -1 -1 -1 -1 -2 -2 -2 -2 -2 -2 -2 -2 -2 -2 -2 -2 -2 -3 -3 -3 -3
1 1 1 1 1 1 1 1 1 1 0 0 0 -0 0 0 -0 -0 -0 -0 0 0 0 0 0 0 -0 -0 -0 -0 -0 -0 -0 -0 -0 -0 -0 -0 -0 -0 0 0 0 1 1 0 0 0 0 0 -0 -0 -0 -0 -0 -0 -1 -1 -1 -1 -1 -1 -1 -1 -1 -1 -2 -2 -2 -2 -2 -2 -2 -2 -2 -2 -2 -2 -3 -3 -3 -3 -3 -3 -3
1 1 1 1 1 1 1 1 1 0 -0 -1 -0 -0 -0 -0 -0 -1 -1 -0 -0 -0 -0 -0 0 -0 -0 -0 -0 -0 -1 -0 -1 -1 -1 -1 -0 -0 -0 -0 -0 -0 0 0 0 0 0 -0 -0 -0 -0 -0 -0 -0 -0 -0 -1 -1 -1 -1 -1 -1 -1 -1 -1 -2 -2 -2 -2 -2 -2 -2 -2 -2 -2 -2 -2 -2 -3 -3 -3 -3 -3 -3 -3
Height
3164 3165 3165 3165 3165 3165 3166 3166 3166 3166 3166 3167 3167 3168 3168 3169 3169 3169 3169 3169 3170 3171 3171 3171 3169 3168 3168 3168 3169 3171 3172 3172 3173 3174 3174 3173 3173 3173 3173 3173 3173 3172 3171 3171 3170 3169 3168 3166 3165 3164 3163 3161 3161 3160 3160 3160 3160 3160 3161 3162 3162 3163 3163 3163 3164 3164 3164 3164 3164 3163 3163 3162 3162 3161 3160 3160 3159 3159 3158 3158 3157 3157 3156 3156 3156
3163 3163 3164 3164 3164 3164 3164 3164 3164 3164 3164 3164 3165 3166 3166 3166 3167 3167 3167 3167 3168 3168 3169 3169 3167 3166 3167 3167 3167 3169 3170 3170 3171 3172 3172 3172 3172 3172 3172 3172 3171 3171 3170 3169 3168 3168 3167 3165 3164 3163 3161 3160 3160 3159 3159 3158 3159 3159 3160 3160 3161 3161 3162 3162 3163 3163 3163 3163 3163 3163 3162 3162 3161 3160 3160 3159 3159 3158 3158 3157 3157 3157 3156 3156 3156
3161 3162 3162 3162 3162 3162 3162 3163 3163 3163 3162 3162 3163 3163 3164 3164 3164 3165 3165 3165 3165 3166 3166 3166 3166 3165 3165 3166 3166 3167 3168 3168 3169 3170 3170 3171 3171 3171 3170 3170 3170 3169 3169 3168 3167 3166 3165 3164 3163 3161 3161 3160 3159 3159 3158 3158 3158 3158 3159 3159 3160 3160 3160 3161 3162 3162 3162 3162 3162 3162 3161 3161 3160 3160 3159 3158 3158 3158 3158 3157 3157 3156 3156 3156 3155
3160 3160 3160 3160 3161 3161 3161 3161 3161 3161 3161 3161 3161 3161 3161 3162 3162 3162 3163 3163 3163 3163 3164 3165 3164 3164 3163 3164 3165 3167 3167 3167 3167 3167 3168 3169 3169 3169 3169 3169 3168 3168 3168 3167 3166 3165 3164 3163 3162 3161 3160 3159 3159 3158 3158 3158 3158 3158 3158 3159 3159 3159 3159 3160 3160 3161 3161 3161 3161 3161 3161 3160 3159 3159 3158 3158 3158 3158 3157 3157 3157 3156 3156 3155 3155
3159 3159 3159 3159 3159 3160 3160 3160 3160 3160 3160 3159 3159 3158 3159 3159 3160 3160 3161 3161 3160 3161 3162 3163 3162 3162 3162 3162 3164 3165 3165 3165 3166 3166 3166 3167 3168 3168 3168 3167 3167 3167 3166 3166 3165 3164 3163 3162 3161 3160 3159 3159 3158 3158 3158 3158 3158 3158 3158 3158 3158 3158 3159 3159 3159 3160 3160 3160 3160 3160 3160 3159 3159 3158 3158 3158 3158 3158 3157 3157 3156 3156 3155 3155 3155
3159 3158 3158 3158 3157 3158 3158 3158 3158 3158 3158 3157 3157 3156 3156 3157 3157 3158 3158 3158 3157 3159 3160 3160 3160 3160 3160 3161 3162 3163 3163 3163 3165 3165 3165 3166 3166 3166 3166 3166 3166 3166 3165 3164 3163 3163 3162 3161 3160 3159 3158 3158 3158 3157 3157 3157 3157 3157 3157 3157 3158 3158 3158 3158 3159 3159 3159 3159 3159 3159 3159 3159 3158 3158 3157 3157 3157 3157 3157 3157 3156 3156 3155 3155 3155
3158 3157 3157 3157 3156 3156 3156 3156 3156 3155 3155 3155 3154 3154 3153 3154 3154 3155 3155 3155 3155 3156 3158 3158 3157 3157 3158 3159 3160 3161 3161 3162 3164 3165 3165 3165 3165 3166 3165 3164 3165 3164 3164 3163 3162 3162 3161 3160 3159 3158 3158 3157 3157 3156 3156 3156 3156 3156 3156 3157 3157 3157 3157 3157 3158 3158 3159 3159 3159 3158 3158 3158 3158 3157 3157 3157 3157 3157 3157 3156 3156 3156 3155 3155 3155
3157 3157 3156 3155 3155 3155 3154 3154 3153 3153 3152 3152 3151 3151 3150 3151 3151 3151 3152 3152 3152 3154 3154 3155 3155 3154 3155 3157 3157 3159 3160 3160 3162 3163 3163 3163 3163 3164 3164 3163 3163 3163 3163 3162 3161 3161 3160 3159 3158 3158 3157 3156 3156 3156 3155 3155 3155 3155 3155 3156 3156 3156 3156 3157 3157 3157 3158 3158 3158 3158 3158 3158 3157 3157 3157 3157 3157 3157 3156 3156 3156 3156 3155 3155 3155
3157 3156 3155 3154 3153 3153 3152 3152 3151 3150 3150 3149 3149 3148 3146 3147 3147 3148 3148 3149 3150 3150 3151 3152 3152 3152 3154 3154 3155 3156 3157 3159 3160 3161 3161 3161 3161 3162 3162 3162 3162 3161 3161 3161 3160 3160 3159 3158 3158 3157 3156 3156 3155 3155 3154 3154 3154 3154 3155 3155 3155 3155 3156 3156 3156 3157 3157 3157 3157 3158 3157 3157 3157 3157 3157 3157 3156 3156 3156 3156 3156 3156 3156 3155 3155
3156 3155 3155 3154 3153 3152 3151 3150 3149 3149 3148 3147 3147 3145 3144 3143 3143 3143 3145 3146 3147 3147 3148 3149 3150 3150 3151 3152 3152 3154 3155 3156 3158 3158 3158 3159 3160 3160 3160 3160 3160 3160 3160 3159 3159 3158 3158 3157 3157 3156 3156 3155 3155 3154 3154 3154 3154 3154 3154 3154 3154 3155 3155 3156 3156 3156 3157 3157 3157 3157 3157 3157 3157 3157 3156 3156 3156 3156 3156 3156 3156 3156 3156 3156 3156
3156 3155 3154 3153 3152 3151 3150 3149 3148 3147 3146 3146 3145 3144 3142 3140 3140 3140 3141 3142 3143 3144 3145 3146 3148 3148 3148 3149 3150 3151 3152 3153 3155 3155 3155 3157 3158 3158 3158 3158 3158 3159 3159 3158 3158 3157 3157 3156 3156 3155 3155 3155 3154 3154 3154 3154 3154 3153 3153 3154 3154 3155 3155 3156 3156 3156 3156 3157 3157 3157 3157 3157 3156 3156 3156 3156 3156 3156 3156 3156 3156 3156 3156 3156 3156
3156 3154 3153 3152 3151 3151 3150 3148 3147 3146 3145 3144 3143 3142 3141 3139 3138 3137 3138 3139 3140 3141 3143 3144 3145 3145 3145 3145 3146 3148 3150 3150 3152 3153 3153 3155 3156 3156 3156 3156 3156 3157 3157 3157 3156 3156 3156 3155 3155 3155 3155 3154 3154 3154 3154 3154 3153 3153 3153 3154 3154 3155 3155 3155 3156 3156 3156 3156 3156 3157 3157 3156 3156 3156 3156 3156 3156 3156 3156 3156 3156 3157 3156 3156 3156
3155 3154 3153 3152 3151 3150 3148 3147 3146 3145 3143 3142 3141 3141 3139 3138 3137 3136 3136 3136 3138 3139 3141 3141 3142 3142 3143 3143 3143 3146 3147 3148 3150 3151 3151 3152 3154 3154 3155 3155 3155 3155 3155 3155 3155 3155 3154 3154 3154 3154 3154 3154 3154 3153 3153 3153 3153 3153 3153 3153 3154 3154 3155 3155 3156 3156 3156 3156 3156 3156 3156 3156 3156 3156 3156 3156 3156 3156 3156 3156 3157 3157 3157 3156 3156
3153 3153 3152 3151 3150 3148 3147 3146 3144 3143 3142 3141 3140 3139 3137 3136 3136 3136 3136 3135 3136 3137 3138 3138 3138 3139 3141 3141 3141 3142 3144 3145 3147 3148 3148 3150 3151 3152 3153 3153 3153 3154 3154 3154 3154 3153 3153 3153 3153 3153 3153 3153 3153 3153 3153 3153 3153 3153 3153 3153 3154 3154 3155 3155 3155 3155 3155 3155 3156 3156 3156 3156 3156 3156 3156 3156 3156 3156 3157 3157 3157 3157 3157 3157 3156
3151 3151 3151 3150 3148 3147 3146 3145 3144 3142 3141 3139 3138 3137 3136 3134 3133 3134 3135 3134 3134 3135 3135 3136 3136 3137 3137 3138 3138 3140 3140 3142 3144 3145 3147 3148 3149 3149 3150 3150 3151 3152 3152 3152 3152 3152 3151 3151 3152 3152 3152 3152 3153 3153 3153 3153 3153 3153 3153 3153 3153 3154 3154 3155 3155 3155 3155 3155 3155 3156 3156 3156 3156 3156 3156 3156 3157 3157 3157 3157 3157 3157 3157 3157 3157
3148 3149 3149 3148 3147 3146 3146 3145 3143 3142 3140 3139 3137 3135 3134 3133 3131 3131 3132 3132 3132 3132 3132 3132 3133 3133 3134 3135 3136 3137 3137 3139 3142 3144 3144 3145 3146 3146 3147 3147 3148 3149 3150 3150 3150 3150 3150 3150 3151 3151 3151 3152 3152 3152 3152 3152 3152 3152 3152 3153 3153 3153 3154 3154 3155 3155 3155 3155 3155 3155 3156 3156 3156 3156 3156 3157 3157 3157 3157 3157 3157 3157 3157 3157 3157
3147 3149 3148 3147 3146 3144 3143 3142 3140 3139 3137 3136 3135 3133 3132 3130 3129 3128 3128 3128 3129 3129 3129 3129 3130 3131 3131 3132 3133 3134 3135 3138 3139 3140 3142 3142 3143 3143 3144 3145 3146 3147 3148 3148 3149 3149 3149 3149 3149 3150 3150 3151 3151 3151 3152 3152 3152 3152 3152 3152 3153 3153 3153 3154 3154 3155 3155 3155 3155 3155 3156 3156 3156 3156 3157 3157 3157 3157 3157 3157 3157 3157 3157 3157 3157
3146 3146 3145 3144 3143 3141 3139 3138 3136 3135 3134 3133 3132 3131 3129 3128 3127 3126 3125 3125 3125 3125 3126 3126 3126 3128 3129 3129 3130 3132 3134 3136 3136 3137 3139 3140 3140 3141 3142 3143 3144 3145 3146 3146 3147 3147 3147 3147 3147 3148 3149 3149 3150 3151 3151 3151 3151 3151 3151 3152 3152 3152 3153 3153 3154 3154 3154 3155 3155 3155 3155 3156 3156 3156 3157 3157 3157 3157 3157 3157 3157 3157 3157 3157 3157
3143 3142 3141 3140 3139 3138 3137 3135 3134 3132 3131 3130 3129 3128 3127 3126 3125 3124 3123 3122 3122 3122 3123 3123 3123 3124 3125 3126 3128 3129 3131 3132 3133 3135 3136 3137 3138 3139 3140 3141 3142 3143 3143 3144 3145 3146 3146 3146 3146 3147 3148 3148 3149 3149 3150 3150 3150 3151 3151 3151 3151 3152 3152 3152 3153 3153 3154 3154 3155 3155 3155 3156 3156 3156 3156 3156 3156 3156 3156 3157 3157 3157 3157 3157 3157
3140 3139 3138 3137 3136 3135 3134 3132 3131 3129 3128 3127 3126 3125 3124 3123 3122 3121 3121 3120 3119 3119 3120 3120 3119 3120 3122 3123 3125 3126 3128 3129 3131 3132 3133 3134 3135 3136 3138 3139 3139 3140 3141 3142 3143 3144 3144 3144 3145 3146 3147 3147 3148 3148 3149 3149 3149 3150 3150 3150 3150 3151 3151 3152 3152 3153 3153 3154 3154 3155 3155 3155 3156 3156 3156 3156 3156 3156 3156 3156 3156 3157 3157 3157 3157
3136 3136 3136 3135 3133 3132 3130 3129 3128 3126 3125 3124 3123 3122 3121 3120 3119 3119 3118 3117 3116 3116 3117 3117 3117 3117 3118 3119 3121 3123 3124 3126 3127 3129 3130 3131 3133 3134 3135 3137 3137 3138 3139 3140 3141 3142 3142 3143 3143 3144 3145 3146 3147 3147 3147 3148 3148 3148 3149 3149 3149 3150 3151 3151 3151 3152 3153 3153 3154 3155 3155 3155 3155 3156 3156 3156 3156 3156 3156 3156 3156 3156 3156 3156 3157
3133 3132 3132 3131 3130 3129 3127 3125 3124 3123 3122 3121 3120 3119 3118 3117 3117 3116 3115 3114 3113 3113 3114 3114 3114 3114 3114 3115 3117 3119 3121 3122 3124 3126 3128 3129 3130 3132 3133 3134 3135 3137 3138 3138 3139 3140 3141 3141 3142 3143 3144 3145 3145 3146 3146 3147 3147 3147 3147 3148 3148 3149 3150 3150 3151 3151 3152 3153 3153 3154 3154 3155 3155 3155 3156 3156 3156 3156 3156 3156 3156 3156 3156 3156 3156
3130 3129 3129 3127 3126 3125 3123 3122 3120 3120 3119 3117 3116 3115 3114 3114 3113 3113 3112 3111 3111 3111 3111 3112 3111 3111 3111 3112 3114 3116 3118 3119 3121 3123 3125 3127 3129 3130 3131 3132 3133 3134 3135 3136 3137 3138 3139 3140 3140 3141 3142 3143 3144 3144 3145 3146 3146 3146 3146 3147 3147 3148 3149 3149 3150 3151 3151 3152 3153 3153 3154 3154 3154 3155 3155 3155 3156 3156 3156 3156 3156 3156 3156 3156 3156
3128 3126 3125 3124 3123 3121 3119 3118 3116 3116 3115 3114 3112 3110 3110 3109 3109 3109 3109 3109 3109 3108 3108 3108 3108 3108 3108 3109 3111 3113 3114 3117 3119 3121 3123 3125 3127 3128 3129 3130 3130 3132 3133 3134 3135 3136 3137 3138 3139 3139 3140 3142 3142 3143 3144 3144 3145 3145 3145 3146 3146 3147 3148 3149 3149 3150 3151 3151 3152 3152 3153 3153 3154 3154 3155 3155 3155 3155 3155 3155 3155 3155 3155 3155 3156
3125 3123 3122 3121 3119 3118 3116 3114 3112 3112 3111 3110 3108 3106 3106 3105 3104 3106 3106 3107 3107 3106 3106 3105 3105 3105 3106 3107 3108 3109 3111 3114 3116 3118 3120 3121 3123 3125 3126 3127 3128 3129 3131 3132 3133 3134 3135 3136 3137 3138 3139 3140 3141 3141 3142 3143 3143 3143 3144 3144 3145 3146 3147 3148 3148 3149 3150 3151 3151 3152 3152 3153 3153 3154 3154 3154 3154 3154 3155 3155 3155 3155 3155 3155 3155
3122 3120 3118 3117 3116 3114 3112 3110 3108 3107 3106 3105 3103 3102 3102 3101 3102 3103 3104 3105 3104 3104 3103 3102 3101 3102 3103 3104 3105 3107 3109 3111 3113 3114 3116 3118 3120 3122 3124 3125 3126 3127 3128 3129 3131 3132 3133 3134 3135 3136 3137 3138 3139 3140 3140 3141 3142 3142 3143 3143 3144 3145 3146 3146 3147 3148 3149 3150 3151 3151 3152 3152 3152 3152 3153 3153 3154 3154 3154 3154 3154 3154 3154 3154 3154
3119 3117 3116 3114 3112 3110 3107 3106 3104 3102 3101 3099 3098 3098 3097 3098 3099 3100 3102 3103 3103 3102 3101 3100 3099 3100 3101 3102 3103 3105 3106 3108 3110 3111 3113 3115 3117 3120 3121 3122 3124 3125 3126 3127 3128 3130 3131 3132 3133 3134 3136 3136 3138 3138 3139 3139 3140 3141 3141 3142 3143 3144 3144 3145 3146 3146 3147 3148 3149 3150 3150 3151 3151 3151 3152 3152 3153 3153 3153 3152 3152 3153 3153 3153 3154
3116 3115 3113 3111 3109 3106 3104 3102 3099 3097 3095 3093 3093 3092 3093 3094 3095 3096 3098 3099 3099 3099 3099 3098 3098 3098 3098 3099 3101 3102 3104 3105 3107 3108 3109 3111 3114 3117 3118 3120 3121 3123 3124 3125 3126 3128 3129 3130 3131 3133 3134 3135 3136 3136 3137 3138 3139 3139 3140 3141 3142 3142 3143 3144 3145 3145 3146 3147 3148 3149 3149 3149 3150 3150 3150 3151 3151 3151 3151 3151 3151 3152 3152 3152 3153
3113 3112 3110 3108 3106 3103 3101 3098 3095 3092 3090 3089 3088 3088 3089 3090 3091 3092 3094 3094 3095 3096 3096 3096 3097 3097 3097 3097 3099 3101 3102 3103 3104 3105 3107 3109 3112 3114 3116 3118 3119 3121 3122 3123 3125 3126 3127 3128 3129 3131 3132 3133 3134 3135 3136 3136 3137 3138 3139 3139 3140 3141 3142 3142 3143 3144 3144 3145 3146 3147 3148 3148 3148 3149 3149 3149 3150 3150 3150 3150 3150 3151 3151 3151 3152
3111 3109 3107 3105 3103 3100 3097 3094 3091 3089 3087 3086 3085 3085 3086 3088 3088 3089 3090 3092 3093 3094 3094 3095 3096 3096 3096 3097 3098 3099 3100 3102 3102 3104 3106 3108 3110 3112 3114 3116 3117 3119 3120 3121 3123 3124 3125 3127 3128 3130 3131 3132 3133 3134 3134 3135 3136 3137 3137 3138 3139 3140 3140 3141 3141 3142 3143 3144 3145 3145 3146 3146 3147 3147 3147 3147 3148 3148 3148 3149 3149 3149 3150 3150 3150
3109 3107 3104 3102 3100 3097 3094 3091 3089 3087 3086 3085 3084 3084 3084 3085 3086 3087 3088 3089 3091 3091 3092 3093 3094 3095 3095 3096 3097 3098 3099 3100 3101 3102 3104 3106 3108 3110 3112 3114 3115 3117 3118 3119 3120 3122 3123 3125 3127 3129 3130 3130 3131 3132 3133 3134 3134 3135 3136 3136 3137 3138 3139 3139 3140 3141 3141 3142 3143 3144 3144 3145 3145 3145 3146 3146 3146 3146 3147 3147 3148 3148 3148 3149 3149
3107 3104 3102 3100 3097 3094 3092 3089 3088 3086 3085 3085 3084 3083 3083 3084 3084 3085 3085 3086 3088 3089 3089 3090 3092 3093 3094 3095 3096 3097 3097 3098 3099 3100 3102 3104 3106 3108 3110 3111 3113 3114 3115 3116 3118 3119 3121 3123 3125 3127 3128 3128 3129 3130 3131 3132 3133 3133 3134 3135 3136 3137 3137 3138 3139 3139 3140 3141 3142 3142 3143 3143 3144 3144 3144 3144 3144 3144 3145 3145 3146 3146 3147 3147 3148
3105 3103 3100 3098 3095 3093 3090 3088 3087 3086 3085 3085 3084 3083 3083 3083 3082 3083 3083 3084 3085 3086 3086 3087 3089 3090 3092 3093 3094 3095 3096 3096 3098 3099 3100 3102 3104 3106 3108 3109 3110 3111 3112 3113 3115 3117 3119 3121 3123 3125 3126 3126 3127 3128 3130 3131 3132 3132 3132 3133 3134 3135 3136 3137 3138 3138 3139 3140 3140 3141 3141 3142 3142 3142 3142 3142 3142 3142 3143 3143 3144 3145 3145 3146 3146
3103 3101 3098 3096 3094 3091 3088 3087 3086 3085 3085 3084 3083 3083 3082 3082 3081 3081 3081 3081 3082 3083 3084 3085 3086 3088 3089 3091 3092 3093 3094 3095 3096 3097 3098 3100 3101 3103 3106 3107 3109 3110 3111 3112 3114 3115 3117 3119 3121 3122 3123 3124 3125 3127 3128 3129 3130 3130 3131 3132 3133 3134 3134 3135 3136 3137 3138 3138 3139 3139 3140 3140 3140 3140 3140 3141 3141 3141 3141 3142 3142 3143 3143 3144 3144
3101 3099 3097 3095 3092 3090 3087 3085 3085 3084 3084 3083 3082 3081 3081 3081 3081 3080 3080 3080 3080 3081 3082 3083 3084 3086 3087 3089 3090 3092 3092 3093 3094 3094 3096 3098 3100 3101 3103 3104 3106 3109 3110 3111 3112 3113 3115 3117 3119 3120 3121 3122 3124 3125 3126 3127 3127 3128 3129 3130 3131 3132 3133 3134 3135 3136 3136 3137 3137 3138 3138 3138 3138 3138 3139 3139 3139 3139 3140 3140 3141 3141 3142 3142 3143
3100 3097 3095 3093 3091 3088 3086 3085 3084 3084 3083 3082 3081 3080 3080 3080 3080 3079 3078 3078 3079 3079 3080 3081 3083 3084 3086 3087 3089 3090 3091 3092 3092 3093 3095 3098 3099 3099 3100 3102 3104 3106 3107 3109 3110 3112 3113 3115 3117 3118 3119 3120 3122 3123 3124 3125 3125 3125 3126 3127 3129 3130 3131 3132 3133 3134 3135 3135 3136 3136 3136 3136 3136 3136 3137 3137 3137 3137 3138 3138 3139 3139 3140 3140 3141
3098 3096 3093 3091 3089 3087 3085 3084 3083 3083 3082 3081 3081 3080 3079 3079 3079 3079 3078 3077 3077 3078 3079 3080 3082 3083 3085 3086 3087 3088 3088 3090 3092 3092 3094 3097 3098 3098 3099 3102 3103 3104 3105 3107 3108 3110 3111 3113 3114 3115 3116 3117 3119 3120 3121 3122 3122 3123 3124 3125 3126 3128 3129 3130 3131 3132 3133 3134 3134 3134 3134 3134 3134 3135 3135 3135 3135 3136 3136 3137 3137 3138 3138 3139 3139
3097 3094 3092 3090 3088 3086 3085 3084 3083 3082 3081 3081 3080 3079 3078 3078 3078 3077 3077 3076 3076 3077 3078 3080 3081 3083 3084 3084 3085 3085 3086 3089 3090 3091 3092 3095 3096 3097 3098 3100 3101 3102 3104 3105 3107 3108 3109 3111 3112 3113 3115 3116 3117 3118 3119 3120 3121 3121 3122 3123 3124 3125 3127 3128 3129 3130 3131 3132 3132 3132 3132 3132 3132 3132 3133 3133 3134 3134 3134 3135 3135 3136 3136 3137 3137
3095 3092 3090 3088 3086 3085 3084 3083 3082 3081 3080 3080 3079 3078 3077 3077 3077 3076 3076 3076 3076 3077 3077 3079 3080 3081 3082 3083 3083 3084 3085 3086 3088 3089 3090 3092 3094 3095 3096 3097 3099 3100 3101 3102 3104 3105 3107 3108 3110 3111 3113 3114 3115 3116 3117 3118 3118 3119 3120 3122 3123 3124 3125 3126 3127 3128 3129 3130 3130 3130 3130 3130 3130 3131 3131 3132 3132 3133 3133 3133 3134 3134 3135 3135 3135
3093 3091 3089 3087 3085 3084 3083 3082 3081 3080 3079 3079 3079 3078 3077 3077 3076 3076 3076 3076 3076 3076 3077 3078 3079 3079 3080 3080 3081 3082 3082 3083 3085 3087 3089 3089 3090 3092 3093 3095 3096 3097 3098 3100 3101 3102 3104 3106 3107 3108 3110 3112 3113 3114 3114 3115 3117 3118 3119 3120 3121 3123 3124 3125 3125 3126 3127 3128 3128 3128 3128 3128 3128 3129 3130 3130 3131 3131 3132 3132 3133 3133 3133 3133 3133
3092 3090 3088 3086 3084 3083 3082 3081 3080 3079 3078 3078 3079 3078 3077 3076 3076 3076 3076 3075 3075 3075 3076 3077 3077 3077 3078 3079 3079 3080 3081 3082 3084 3086 3087 3087 3087 3088 3090 3092 3093 3095 3096 3098 3098 3100 3102 3103 3104 3105 3107 3109 3110 3111 3112 3114 3116 3117 3117 3118 3119 3120 3121 3122 3123 3124 3125 3125 3125 3125 3126 3126 3126 3127 3128 3129 3129 3130 3130 3131 3131 3131 3131 3131 3131
3091 3089 3087 3085 3083 3082 3080 3079 3078 3078 3077 3077 3077 3077 3076 3076 3076 3076 3075 3075 3074 3075 3075 3075 3075 3076 3077 3078 3078 3079 3080 3081 3082 3084 3085 3085 3085 3086 3088 3089 3090 3091 3093 3095 3095 3096 3098 3100 3101 3103 3104 3106 3108 3110 3112 3114 3114 3115 3116 3117 3117 3118 3118 3119 3120 3121 3122 3122 3123 3123 3124 3124 3125 3126 3126 3127 3127 3128 3128 3129 3129 3129 3129 3129 3129
3089 3088 3086 3084 3082 3080 3079 3078 3077 3077 3077 3076 3076 3076 3077 3077 3076 3076 3075 3074 3074 3075 3075 3074 3075 3076 3076 3076 3076 3077 3078 3079 3080 3082 3083 3084 3084 3085 3086 3087 3088 3089 3090 3091 3092 3093 3095 3096 3098 3100 3102 3103 3106 3109 3110 3111 3112 3113 3114 3115 3115 3115 3116 3117 3118 3119 3120 3121 3121 3122 3122 3122 3123 3124 3124 3125 3125 3126 3126 3126 3126 3126 3126 3126 3126
3088 3087 3085 3083 3081 3080 3078 3077 3077 3077 3077 3076 3076 3076 3076 3076 3075 3075 3075 3074 3074 3075 3075 3074 3074 3075 3075 3075 3075 3076 3077 3078 3078 3080 3082 3082 3082 3083 3084 3085 3087 3087 3088 3089 3091 3091 3092 3093 3095 3097 3099 3101 3104 3106 3108 3109 3111 3111 3112 3113 3113 3114 3115 3116 3117 3118 3119 3120 3120 3120 3120 3121 3121 3121 3122 3122 3123 3123 3123 3123 3123 3124 3124 3124 3124
3087 3086 3084 3082 3081 3079 3078 3077 3076 3076 3076 3076 3076 3076 3075 3075 3075 3074 3074 3074 3074 3074 3074 3074 3074 3074 3074 3074 3075 3075 3076 3076 3077 3078 3079 3080 3080 3081 3083 3084 3085 3085 3086 3087 3089 3090 3090 3091 3092 3095 3097 3099 3101 3104 3105 3107 3109 3109 3110 3111 3112 3113 3114 3115 3116 3117 3118 3118 3118 3118 3118 3118 3119 3119 3119 3120 3120 3120 3120 3120 3120 3120 3121 3121 3120
3087 3085 3083 3082 3080 3079 3077 3077 3076 3076 3076 3075 3075 3075 3075 3075 3074 3074 3074 3073 3073 3073 3073 3073 3073 3073 3074 3074 3074 3074 3075 3076 3076 3076 3077 3078 3079 3079 3081 3082 3082 3083 3084 3085 3087 3088 3089 3090 3091 3093 3096 3097 3099 3101 3103 3104 3106 3108 3109 3110 3111 3112 3113 3114 3115 3115 3115 3116 3116 3116 3116 3116 3116 3116 3116 3117 3117 3117 3117 3117 3117 3117 3117 3117 3117
3086 3085 3083 3082 3080 3079 3077 3077 3076 3076 3075 3074 3074 3074 3074 3074 3074 3073 3073 3073 3073 3073 3073 3073 3073 3073 3073 3073 3072 3073 3074 3075 3075 3075 3076 3076 3077 3078 3079 3080 3081 3082 3083 3084 3085 3087 3088 3089 3090 3092 3094 3095 3097 3099 3101 3102 3104 3105 3107 3108 3109 3110 3110 3111 3112 3112 3112 3112 3113 3113 3113 3113 3113 3113 3113 3114 3114 3114 3114 3114 3114 3114 3114 3114 3114
3085 3084 3083 3082 3081 3079 3078 3077 3077 3076 3075 3074 3074 3074 3075 3074 3074 3073 3073 3073 3072 3072 3072 3072 3072 3072 3072 3072 3071 3072 3072 3073 3073 3074 3074 3075 3075 3076 3077 3079 3080 3081 3082 3082 3084 3085 3087 3088 3089 3090 3092 3093 3094 3096 3098 3100 3102 3103 3104 3104 3105 3105 3106 3108 3108 3109 3109 3109 3109 3110 3110 3110 3110 3110 3110 3110 3110 3110 3110 3110 3110 3110 3110 3110 3110
3085 3084 3083 3082 3081 3080 3079 3078 3078 3077 3076 3076 3076 3076 3075 3075 3074 3074 3074 3073 3072 3072 3072 3072 3071 3071 3071 3071 3070 3070 3071 3071 3072 3072 3073 3074 3075 3075 3076 3078 3079 3080 3081 3081 3082 3084 3085 3087 3088 3090 3092 3093 3094 3095 3096 3098 3099 3100 3101 3101 3101 3102 3103 3104 3105 3105 3106 3106 3106 3107 3107 3106 3106 3106 3106 3106 3106 3106 3106 3106 3106 3106 3106 3106 3106
3085 3084 3083 3082 3081 3080 3079 3078 3078 3077 3077 3076 3076 3075 3075 3075 3074 3074 3074 3073 3072 3072 3072 3071 3070 3070 3070 3070 3069 3069 3070 3070 3071 3071 3072 3073 3074 3075 3076 3077 3079 3080 3081 3081 3082 3082 3084 3085 3087 3089 3090 3091 3093 3093 3093 3094 3096 3097 3098 3098 3099 3100 3100 3101 3102 3102 3102 3103 3103 3104 3104 3103 3102 3102 3103 3103 3102 3102 3102 3102 3102 3102 3101 3101 3101
3085 3084 3083 3082 3081 3080 3079 3078 3078 3077 3076 3076 3076 3075 3075 3074 3074 3074 3073 3073 3073 3072 3072 3071 3071 3070 3070 3070 3070 3070 3070 3071 3071 3072 3072 3073 3074 3075 3075 3076 3078 3080 3080 3081 3082 3083 3084 3085 3087 3088 3089 3089 3090 3091 3091 3092 3093 3094 3095 3096 3097 3097 3098 3098 3099 3099 3098 3099 3100 3100 3100 3100 3099 3099 3099 3099 3099 3098 3098 3098 3097 3097 3097 3097 3096
Wind_Speed
12 11 11 13 14 14 14 15 16 17 18 19 21 23 23 22 22 22 22 22 22 23 23 23 24 24 24 23 22 20 18 17 17 18 18 18 17 16 16 16 16 16 16 16 16 16 16 16 16 16 15 14 12 11 11 12 13 15 16 16 15 15 14 12 11 10 10 10 10 11 11 11 11 11 11 10 9 8 7 6 5 5 5 5 4
14 14 13 14 15 16 16 17 18 18 18 19 21 24 25 24 24 24 23 23 23 24 24 25 27 28 26 25 25 23 20 18 16 16 18 19 18 17 17 17 16 16 16 16 16 16 16 16 16 16 13 11 8 7 7 8 9 11 13 14 14 14 14 12 11 11 11 11 11 11 11 10 10 10 10 9 8 6 5 5 5 5 5 4 4
14 14 14 16 17 18 18 19 19 20 20 21 22 24 26 26 26 26 26 26 26 26 26 27 28 29 29 29 28 26 24 20 14 15 18 19 19 18 17 17 17 17 17 17 17 17 17 16 16 15 11 9 7 6 6 6 7 8 10 11 12 13 13 13 11 11 11 11 11 11 10 10 9 9 8 7 6 5 4 4 4 5 4 4 4
13 13 14 16 17 18 19 19 20 21 21 22 22 23 26 28 28 28 29 28 29 29 29 28 29 30 31 32 31 27 27 22 14 14 17 18 19 18 18 18 17 17 17 17 17 17 17 16 15 13 10 8 7 6 6 6 7 7 8 9 10 11 12 12 11 11 11 10 10 10 9 9 8 7 6 5 5 4 4 4 4 4 4 4 4
12 14 15 16 18 19 19 19 20 21 22 22 23 24 26 28 29 30 31 31 31 32 31 30 29 31 31 32 30 28 28 25 18 15 16 18 19 19 18 18 18 18 18 17 17 17 16 15 14 11 9 8 7 7 7 7 7 7 7 7 8 9 10 10 10 10 9 9 9 9 8 7 6 5 4 4 4 4 4 4 4 4 5 5 5
13 14 15 17 18 19 19 19 20 22 23 23 23 25 26 28 29 30 31 33 34 34 33 33 31 30 31 30 29 28 28 27 23 17 16 19 21 19 17 17 18 18 17 17 17 17 15 15 13 10 8 8 7 7 7 7 7 7 6 7 7 7 8 9 9 9 8 8 8 7 7 6 4 3 3 4 4 4 4 4 4 4 5 5 5
12 13 14 15 16 16 17 18 19 20 21 21 22 24 26 28 29 29 30 32 34 34 35 36 34 31 30 29 29 30 28 27 25 20 19 20 21 19 17 16 16 17 17 17 17 15 14 13 11 9 8 7 7 7 8 8 7 6 7 7 6 6 7 7 7 8 7 7 6 6 5 3 2 2 3 4 4 4 4 4 4 4 4 4 4
10 11 12 12 12 12 14 15 17 17 18 19 20 22 24 26 28 29 29 30 31 32 35 38 38 35 32 29 30 31 29 27 25 22 21 20 18 17 17 16 16 16 17 16 16 14 13 11 10 9 8 7 7 7 7 8 7 7 7 7 7 7 7 7 7 6 6 6 5 4 3 2 1 2 3 3 4 4 4 4 3 3 3 2 2
8 9 9 10 10 11 12 13 13 13 14 15 17 20 21 24 27 28 28 29 30 30 33 36 38 38 35 33 33 33 31 27 25 24 22 19 17 16 16 16 17 17 16 16 15 14 12 10 9 9 8 8 7 6 6 6 7 7 7 6 6 7 6 6 6 6 5 4 4 3 2 1 2 2 2 3 3 4 3 3 2 2 2 3 3
8 8 8 8 8 9 10 11 11 10 11 12 15 19 20 23 26 26 26 28 29 30 31 34 37 38 37 36 36 34 31 27 25 24 23 21 18 16 16 16 18 18 16 16 15 13 11 9 9 8 7 7 5 4 4 5 6 7 6 6 6 6 6 6 5 4 3 3 2 2 1 2 2 2 2 2 2 2 3 3 3 3 3 3 3
8 8 8 8 8 8 9 10 10 9 10 11 14 18 20 23 25 24 23 26 28 30 32 33 34 35 35 37 37 34 30 27 27 24 21 23 20 17 16 16 18 19 17 16 15 13 11 10 9 7 6 5 3 3 4 4 5 6 6 6 6 5 5 5 4 3 3 2 2 2 2 2 1 1 1 1 2 3 3 4 4 4 4 3 3
6 7 8 8 8 9 9 9 9 9 10 11 12 15 18 21 23 23 24 25 25 27 30 31 32 33 33 35 36 34 31 28 26 23 20 21 20 18 17 16 18 19 18 16 14 12 11 9 8 6 5 3 3 3 4 4 5 5 5 5 5 5 4 4 3 3 2 2 2 2 2 1 1 0 1 2 3 4 5 4 4 4 4 3 2
6 6 6 7 8 9 9 8 9 9 10 11 12 14 17 20 23 24 25 25 22 23 26 28 29 31 31 33 34 33 32 30 26 22 19 19 20 20 19 17 17 19 18 17 15 12 10 8 7 6 5 3 3 3 4 4 5 5 5 5 4 4 4 3 3 2 2 2 2 1 1 1 2 3 4 4 5 5 5 4 4 4 3 3 2
7 7 6 7 8 9 10 10 10 10 11 12 12 13 15 19 22 22 23 25 22 22 25 27 28 29 30 33 34 33 33 31 27 23 22 21 21 22 21 19 18 19 19 17 15 12 9 9 8 7 5 5 4 4 5 5 5 5 4 4 4 3 3 3 2 2 2 2 2 2 2 3 4 5 5 5 5 5 4 4 3 3 3 2 2
9 8 8 9 10 11 12 11 11 12 12 13 13 13 14 16 20 20 21 23 23 22 24 25 27 27 28 31 32 33 33 31 28 25 24 24 23 23 22 20 19 19 19 17 15 12 10 10 9 7 6 5 5 5 5 6 5 5 4 4 4 3 3 3 2 2 2 3 3 3 3 4 5 5 5 5 5 4 3 3 3 3 3 2 3
11 10 11 14 15 15 14 13 13 14 15 15 15 14 13 14 17 19 21 22 22 23 25 26 26 26 27 28 29 32 33 31 29 28 27 25 24 23 22 21 20 19 18 17 15 13 11 10 9 8 7 6 5 5 5 6 6 5 5 5 4 3 3 3 3 3 3 3 3 3 3 4 4 5 5 4 4 3 3 3 3 3 3 3 3
12 11 13 15 14 13 13 13 13 14 15 16 17 17 16 14 14 17 20 22 22 23 24 26 27 26 26 27 28 30 31 29 29 28 26 25 23 22 22 21 21 19 18 17 16 13 11 10 10 9 8 7 6 6 5 6 6 5 6 5 4 4 4 4 4 4 4 3 3 3 3 3 4 4 4 3 3 3 4 4 4 4 4 3 4
15 14 13 11 10 10 11 12 13 15 15 17 18 19 19 17 15 16 18 21 23 24 24 25 27 28 28 27 28 29 28 28 28 26 24 22 21 21 22 22 21 20 19 18 16 14 12 11 11 10 10 8 7 7 6 6 5 5 6 6 5 4 5 5 4 4 5 4 3 3 3 3 3 3 3 2 2 3 4 4 4 4 4 4 4
17 15 13 13 11 10 11 12 14 16 17 18 19 20 21 20 18 17 17 19 23 25 25 25 27 28 28 27 27 27 27 27 27 25 23 21 21 21 21 22 22 21 20 18 17 15 13 13 12 11 11 10 9 8 7 7 7 6 6 6 6 5 5 6 5 5 5 4 3 2 2 3 3 2 2 2 2 3 4 4 5 5 5 5 5
16 15 15 17 16 13 13 15 16 17 18 20 21 22 23 22 20 19 18 19 21 24 25 25 27 27 27 28 28 27 27 27 26 25 23 22 22 22 22 22 22 21 20 18 17 17 15 15 14 13 12 11 11 10 9 8 8 7 7 6 6 6 7 6 6 6 5 5 3 2 2 3 3 2 2 3 2 3 4 4 5 5 6 5 5
18 18 18 18 17 16 17 18 19 20 20 21 22 23 24 23 22 20 19 20 21 23 24 26 27 28 27 27 27 28 28 28 28 27 25 24 23 23 22 21 21 21 20 18 18 17 17 16 15 14 13 12 12 11 10 9 9 8 7 7 7 7 7 7 7 6 6 5 3 2 3 3 3 3 3 2 2 2 3 4 5 6 6 6 5
19 20 20 20 19 19 20 20 22 22 22 22 23 24 25 25 24 23 22 22 23 23 25 27 27 29 28 26 27 28 29 29 29 28 27 26 24 22 21 21 20 19 18 18 18 18 17 17 16 16 14 13 13 12 11 10 9 8 8 8 8 7 7 7 7 6 6 4 3 4 6 4 3 3 3 2 1 1 2 4 5 6 6 6 6
19 21 21 22 22 22 23 23 24 24 23 23 23 25 26 26 26 26 25 24 24 24 25 27 27 27 27 25 26 27 27 29 29 28 27 25 23 21 20 20 19 19 19 19 18 18 18 17 17 16 16 14 14 13 12 11 10 9 9 9 8 8 8 8 7 6 6 5 4 6 8 7 5 4 3 2 1 0 2 4 5 7 7 7 7
22 23 23 24 24 24 25 25 26 25 23 24 25 26 27 27 27 27 27 26 25 24 24 26 27 26 25 24 23 24 24 25 26 26 26 24 23 21 20 20 20 20 20 20 19 19 19 18 17 17 17 16 15 14 13 12 11 10 9 9 9 9 8 8 8 7 6 6 5 5 7 8 7 5 3 3 3 2 3 4 6 8 8 8 8
25 25 26 26 26 26 26 26 27 27 26 26 27 28 27 27 27 26 27 25 23 23 22 24 25 25 24 22 22 22 22 23 24 26 26 25 25 24 22 22 21 20 21 21 20 19 19 18 18 19 18 17 16 15 14 12 11 10 9 9 9 9 9 8 8 7 7 6 5 4 6 8 8 6 4 3 4 4 4 5 7 9 10 10 9
25 26 27 27 27 27 28 28 29 29 29 28 29 29 28 27 26 25 25 24 22 21 21 22 23 24 24 23 23 22 22 22 24 26 27 27 27 25 23 23 22 22 22 21 20 20 19 18 19 19 19 18 17 16 15 13 11 10 10 10 10 9 9 8 8 8 7 6 5 5 6 8 9 8 6 5 5 5 6 7 9 11 11 11 10
25 26 27 28 29 29 30 30 30 31 32 31 29 28 28 26 24 23 22 23 23 22 20 20 20 23 24 23 23 23 23 23 24 26 27 27 26 25 24 22 22 22 22 21 21 19 18 18 19 19 19 18 17 17 16 14 13 12 11 10 11 10 10 9 8 8 8 7 7 7 7 9 9 8 7 7 7 7 8 9 10 12 12 12 11
25 26 27 28 29 30 30 30 31 32 31 28 24 24 24 24 22 20 19 21 23 22 19 18 18 20 21 22 23 23 23 24 25 26 27 26 26 26 25 23 21 22 22 21 20 19 20 20 20 20 19 18 18 18 18 16 15 14 12 11 11 11 10 10 9 9 9 8 8 8 8 9 10 9 9 9 9 9 9 10 11 13 13 13 12
26 27 27 28 28 29 28 29 30 29 25 21 19 19 21 21 20 17 16 19 21 20 18 17 17 18 20 21 23 23 22 23 24 25 26 25 25 26 25 23 22 22 21 20 18 18 20 20 20 20 19 20 20 19 18 17 16 14 13 12 12 12 11 11 10 10 10 9 9 9 9 10 10 10 10 10 10 11 11 11 12 13 14 14 13
25 26 27 28 27 27 27 27 26 23 19 16 15 16 18 18 17 14 14 16 18 17 17 16 16 17 19 19 22 23 23 23 23 24 23 23 24 25 25 23 22 22 22 20 17 17 19 20 19 19 19 19 19 19 18 17 16 15 14 13 13 13 13 12 11 11 11 10 10 10 10 10 10 10 10 11 11 11 12 12 12 14 15 15 15
24 25 26 27 26 26 25 23 20 17 15 12 11 13 15 15 15 13 11 13 15 15 16 16 17 18 19 19 21 22 23 24 24 23 23 24 25 25 24 23 22 23 23 21 19 19 19 19 19 18 18 18 18 19 19 17 17 16 15 14 14 14 13 13 12 12 12 11 11 11 10 10 10 10 10 11 11 12 12 12 13 14 15 16 16
23 24 25 25 24 24 22 19 16 13 12 10 10 11 14 14 14 13 12 13 14 14 15 16 18 19 20 21 22 22 24 25 25 25 25 25 25 25 25 24 23 23 23 22 21 21 20 19 19 18 18 19 20 21 20 19 18 17 16 15 15 15 14 13 13 13 13 12 12 11 11 11 11 11 11 11 12 12 12 12 13 14 15 16 16
23 23 23 23 22 22 20 17 14 12 11 11 11 12 13 14 14 13 13 13 14 14 15 16 18 20 21 22 24 24 25 26 27 27 27 26 25 26 26 24 24 25 24 23 23 23 22 21 20 20 20 21 22 22 21 20 19 17 16 16 16 15 15 14 14 14 13 13 12 12 11 11 12 12 12 12 12 13 13 13 14 14 15 16 16
22 22 22 21 20 20 19 16 13 12 11 11 11 12 12 13 13 12 12 12 14 15 15 15 17 19 21 22 23 24 25 26 27 27 26 26 26 25 24 24 23 23 24 24 23 23 23 21 21 22 23 22 22 21 20 19 19 17 16 16 16 16 16 16 15 15 14 14 13 13 12 12 13 13 13 13 13 14 14 14 15 15 15 16 17
21 22 21 20 19 18 17 15 12 10 10 10 10 11 12 12 11 11 11 11 13 14 14 15 16 19 21 21 21 23 24 25 26 26 25 25 25 24 24 25 24 23 24 25 24 24 23 22 21 22 23 22 21 20 19 19 19 18 17 17 17 17 17 16 16 16 15 15 14 14 14 14 14 14 14 13 14 15 16 16 16 16 17 17 17
20 21 21 20 18 16 15 13 11 10 10 10 9 8 10 10 10 10 11 11 12 13 14 15 17 19 21 20 20 22 24 25 25 25 24 23 24 25 25 25 24 24 24 25 25 25 24 23 22 22 22 21 21 20 19 19 20 19 19 19 19 19 18 17 16 16 17 17 16 15 15 15 15 14 13 13 14 16 17 17 17 17 17 18 18
20 21 21 20 18 15 13 12 11 10 10 10 9 8 8 9 9 10 11 11 12 12 14 16 18 20 21 20 20 22 24 24 24 24 22 22 24 25 24 23 23 24 24 24 25 25 24 24 24 25 25 23 21 21 19 18 20 20 20 20 20 20 20 18 18 18 18 17 16 16 16 16 15 14 14 14 15 16 16 17 17 17 17 18 18
20 20 21 20 18 14 11 10 9 9 10 10 10 8 8 9 8 9 10 10 11 13 14 15 16 18 21 21 21 23 24 23 22 22 21 21 23 23 22 22 22 23 24 24 24 23 23 25 25 26 25 22 20 20 19 18 19 19 19 20 20 21 20 19 19 19 19 17 17 17 17 17 16 15 14 15 15 15 15 15 16 16 16 17 16
20 20 20 20 18 14 10 9 8 8 9 10 9 8 8 8 7 8 9 9 10 12 14 14 14 16 19 21 22 23 22 21 21 21 21 20 20 20 22 22 22 22 23 24 23 23 24 24 23 24 23 21 21 20 18 18 19 20 20 20 20 20 20 20 19 19 18 18 18 19 18 17 16 14 14 13 13 13 13 13 14 14 15 14 14
19 20 20 19 17 13 9 9 8 7 8 9 9 9 8 8 7 8 8 8 10 12 13 14 14 15 18 20 21 21 21 21 21 20 20 20 20 21 22 23 23 23 23 23 23 23 24 23 23 24 24 23 22 21 20 20 20 20 20 21 21 20 18 18 18 18 19 19 19 19 17 16 15 14 12 12 12 12 12 12 12 13 13 13 14
18 19 19 18 16 13 9 8 8 8 9 9 9 10 9 7 6 7 6 7 10 11 12 13 15 16 17 19 21 21 21 22 21 20 20 21 22 23 22 22 23 24 24 24 23 22 23 24 24 25 26 25 23 23 22 20 19 19 20 21 22 21 19 18 19 20 21 20 19 18 17 16 15 13 13 13 13 13 12 12 13 13 14 15 15
17 18 18 17 15 12 9 8 8 8 9 9 9 10 9 8 7 6 6 7 9 9 9 12 15 16 17 18 20 21 22 22 20 20 21 22 24 24 23 22 22 22 23 22 22 22 23 25 24 24 27 28 26 22 20 18 18 19 20 20 21 21 21 21 21 22 21 19 18 18 17 16 15 14 13 13 13 13 13 14 14 15 16 17 18
17 17 16 15 14 12 9 8 8 8 8 9 9 10 9 7 7 6 7 8 9 8 8 11 12 12 13 16 18 20 21 21 21 20 21 23 24 23 22 22 21 21 21 20 21 22 23 25 25 26 28 28 24 20 18 18 19 20 19 20 20 20 21 21 20 20 19 18 18 17 17 16 15 14 14 14 14 15 15 16 16 17 18 19 19
16 16 15 14 12 11 7 6 7 7 8 9 9 8 7 6 7 7 7 8 9 9 9 10 11 11 12 14 16 17 18 19 19 17 19 22 23 21 20 20 19 19 19 20 21 21 22 24 25 27 29 26 22 20 20 20 20 20 20 19 19 18 19 19 18 17 17 17 18 17 16 15 15 14 15 15 16 17 18 18 18 19 20 21 22
16 15 14 13 11 9 7 5 6 6 7 8 7 7 5 4 5 6 6 7 7 7 7 7 8 11 12 13 14 14 15 16 17 16 17 20 21 20 19 19 19 19 19 20 20 20 22 23 24 27 27 24 21 20 20 19 20 21 20 20 19 19 19 20 19 17 17 18 17 16 15 14 15 15 16 17 18 19 20 20 21 21 22 23 24
14 13 12 11 9 7 6 5 6 7 8 8 6 6 5 5 6 7 7 7 7 7 7 7 8 10 12 13 14 14 14 15 16 18 18 19 20 19 18 19 20 19 20 20 20 21 24 25 25 25 25 24 22 21 21 21 20 20 20 19 19 20 21 22 21 19 18 18 16 16 15 15 16 17 18 18 20 21 22 23 24 24 24 24 24
13 12 11 10 7 6 6 5 6 7 4 4 3 3 5 7 7 8 8 8 8 8 8 8 8 9 11 14 15 15 14 13 13 16 18 18 19 18 18 20 19 18 20 21 20 22 25 26 26 25 24 23 22 21 22 22 20 20 20 19 18 19 20 21 20 19 19 19 19 18 17 17 18 19 20 21 21 23 25 25 26 25 26 27 27
13 12 10 9 7 7 7 7 9 11 8 5 3 3 5 7 6 6 6 6 7 8 8 9 9 9 10 12 14 15 15 14 13 14 16 16 17 18 18 19 18 17 19 21 22 23 24 26 28 27 26 25 25 24 23 23 22 22 22 21 20 20 20 20 20 20 20 20 20 20 18 18 20 21 22 22 23 24 26 27 28 28 29 29 29
11 10 9 8 7 7 7 9 12 12 9 6 5 7 8 8 8 8 7 6 7 8 5 2 5 9 10 11 13 13 13 14 14 14 14 15 16 17 18 19 19 18 18 20 22 23 24 26 25 23 23 24 24 24 24 23 24 26 24 23 22 21 21 20 20 21 22 21 21 21 21 21 23 24 24 24 25 27 28 29 30 30 31 31 31
10 9 8 7 6 4 3 4 6 4 3 3 4 8 9 8 9 9 9 9 9 8 4 4 4 5 8 9 9 8 8 10 11 11 11 12 12 13 16 18 17 15 15 17 19 20 22 24 22 20 22 22 20 23 25 24 23 25 23 22 21 21 22 23 22 22 24 24 23 23 24 25 26 27 27 26 27 29 30 30 31 32 33 33 32
9 9 8 7 5 3 1 2 3 2 3 4 5 7 9 10 9 8 9 10 8 5 2 0 1 2 2 1 3 4 4 5 5 6 8 8 9 10 13 14 14 13 14 14 15 17 19 20 19 19 20 18 16 21 25 23 22 24 24 22 21 22 24 26 26 25 26 27 27 27 28 28 28 29 29 30 30 31 31 32 34 35 34 31 28
Wind_Direction
263 257 250 246 247 248 252 256 259 255 246 241 240 240 240 242 241 239 241 245 250 252 252 252 251 250 253 256 257 258 257 257 264 271 273 274 278 281 284 288 292 295 299 302 304 305 306 304 303 304 304 297 289 283 275 265 257 250 248 248 248 248 251 256 262 268 274 281 289 296 302 309 315 321 327 332 339 346 350 356 1 2 2 4 4
271 266 261 256 254 256 258 261 263 260 254 249 245 242 240 241 242 240 240 242 246 251 251 249 250 252 253 255 257 259 259 253 257 270 272 273 276 279 283 288 292 296 300 302 304 307 309 307 308 310 306 297 291 289 286 271 257 247 243 244 245 244 246 250 256 263 271 278 285 292 297 304 311 318 324 330 341 351 359 2 359 359 357 358 358
278 274 268 260 257 259 263 265 264 260 258 255 251 245 240 240 240 241 241 241 243 246 249 249 250 254 255 256 257 258 258 249 250 268 271 271 274 277 281 286 291 296 300 302 305 309 310 309 311 312 302 292 292 288 283 270 254 246 240 241 241 240 241 244 250 258 267 275 281 288 294 300 308 315 322 331 346 359 5 4 358 353 350 347 346
285 285 278 270 264 264 267 268 266 261 257 256 254 247 241 239 238 240 242 244 245 245 248 251 252 253 255 258 261 266 267 256 245 256 264 266 268 272 277 282 288 293 298 300 304 308 309 312 313 309 296 286 288 280 271 259 248 242 237 238 238 237 238 242 247 253 262 270 278 285 290 297 304 312 324 337 350 0 5 0 351 343 338 335 334
293 292 288 282 277 274 273 272 267 261 257 255 255 251 243 239 238 239 242 245 248 247 247 251 254 255 256 260 264 267 268 264 255 250 257 262 261 265 272 278 284 290 296 299 302 306 308 313 313 305 292 285 283 276 265 254 244 238 233 235 237 236 237 242 246 251 258 266 274 280 286 292 301 313 330 345 352 354 357 353 343 334 330 330 328
296 292 288 285 282 282 280 276 271 266 261 257 255 252 245 239 239 240 242 244 247 247 246 248 252 256 257 259 262 263 263 267 270 265 263 265 261 261 266 273 281 287 292 297 301 305 308 312 312 303 293 288 283 275 262 252 242 235 231 230 233 234 235 240 243 249 254 261 267 274 282 289 299 321 341 350 350 347 347 346 339 331 327 327 328
298 293 290 287 285 285 283 280 275 271 267 262 256 250 243 239 241 243 245 246 246 246 243 244 248 253 257 258 259 260 260 264 272 274 272 269 260 258 265 270 278 285 288 295 300 304 309 311 310 303 299 294 284 273 261 251 239 231 227 223 225 228 232 237 241 246 250 255 262 269 276 282 301 335 348 349 346 342 344 344 340 335 330 332 340
311 306 303 300 295 290 285 283 281 275 269 265 258 250 243 239 241 245 248 248 248 245 241 241 245 249 253 257 258 256 256 258 264 268 270 270 259 255 267 272 275 281 285 293 298 302 308 309 305 303 305 300 285 271 257 246 235 225 221 216 216 219 226 233 239 244 248 253 258 261 262 274 315 340 346 345 343 342 344 348 350 354 352 7 40
337 333 329 321 311 301 293 290 289 281 271 264 257 251 247 244 245 249 250 248 247 246 241 238 243 249 251 254 256 255 256 258 259 262 266 269 264 258 266 272 273 277 283 290 294 298 305 305 301 303 307 304 286 265 249 236 224 215 210 208 209 213 219 227 234 239 245 251 249 247 252 284 317 332 343 345 347 347 354 8 26 43 50 67 80
351 349 346 342 331 315 306 303 300 292 279 267 258 256 255 252 250 250 249 246 245 245 242 238 241 248 252 252 253 256 260 258 252 256 261 263 266 265 264 268 270 273 279 285 288 294 300 301 297 301 309 307 285 251 233 221 213 204 199 199 202 207 213 219 222 224 226 233 240 247 271 294 309 325 344 349 359 12 31 51 63 71 78 84 88
344 344 346 347 344 333 324 319 313 305 295 282 268 262 261 259 255 251 248 246 244 245 246 244 244 249 251 250 250 254 259 254 246 251 260 259 261 267 266 265 267 269 273 279 284 290 295 294 290 296 305 304 275 225 205 205 206 196 189 189 191 195 200 206 205 201 200 216 241 263 277 284 297 319 353 28 56 70 73 76 79 81 83 84 83
341 340 341 340 341 338 334 329 322 313 304 294 280 269 264 262 260 256 252 247 244 245 248 249 250 251 250 248 247 251 256 253 248 253 264 260 257 263 265 259 262 266 269 275 281 286 291 287 280 286 291 285 254 206 183 189 196 187 181 176 175 177 181 190 195 199 210 232 249 257 259 255 232 154 113 98 94 92 88 84 82 76 71 63 53
337 338 337 333 330 326 323 321 317 311 305 300 291 281 274 267 263 261 259 255 249 245 246 248 249 249 249 246 245 249 253 253 252 254 261 262 256 258 260 253 254 262 268 273 276 280 283 276 269 275 276 269 247 206 183 186 189 183 176 170 169 173 181 195 208 217 223 230 229 219 195 165 145 131 118 106 101 97 91 85 76 62 47 39 37
322 327 327 323 317 311 307 305 303 302 300 298 297 293 285 276 271 269 268 265 259 251 248 248 248 248 249 246 244 246 248 248 251 251 256 261 258 256 254 248 248 256 264 268 270 272 271 265 262 264 264 260 247 218 199 195 192 188 181 180 182 185 197 210 212 204 190 180 169 154 140 134 130 124 117 111 106 100 93 85 72 53 37 40 51
304 305 306 306 304 301 299 299 300 300 298 295 293 294 291 281 274 271 267 264 263 259 255 253 250 247 247 244 241 243 244 244 247 250 256 262 259 254 250 245 245 251 259 263 265 266 264 257 254 256 255 249 240 226 214 207 202 199 195 200 206 202 203 196 183 173 160 157 152 141 131 127 126 123 121 117 111 104 97 87 74 63 59 70 85
280 289 303 309 310 309 307 307 306 303 300 297 292 288 289 284 274 268 264 262 261 260 257 256 252 248 247 244 239 240 243 244 246 250 255 256 254 252 247 243 245 249 255 260 261 262 258 248 245 251 251 242 236 232 226 217 209 208 207 208 209 198 184 174 166 159 155 155 146 129 122 123 126 127 126 122 115 111 107 100 91 87 90 106 121
280 302 311 312 313 309 304 301 297 292 290 292 292 288 284 283 276 268 264 262 260 258 256 254 250 247 248 245 240 241 244 248 251 250 248 248 251 249 242 241 245 247 252 255 256 257 251 240 238 245 247 242 234 232 231 218 206 209 208 197 194 188 179 176 169 163 161 156 141 122 113 118 126 130 130 124 116 115 114 110 105 108 118 131 133
304 312 311 310 304 289 282 282 282 280 279 281 286 287 283 279 277 273 268 264 262 260 256 253 249 244 244 243 241 242 245 248 250 247 242 242 246 244 238 238 242 244 248 250 250 252 246 236 236 240 242 240 233 232 230 219 210 209 203 191 190 190 186 185 178 172 170 164 150 129 116 126 140 140 128 115 117 120 121 120 118 124 137 145 140
311 311 315 316 305 288 276 273 273 274 275 277 278 280 279 276 275 274 271 266 265 263 258 255 251 244 240 240 240 241 241 242 243 243 241 240 242 240 236 236 239 242 244 244 243 246 242 236 236 237 236 233 231 232 227 222 219 212 203 200 201 201 197 195 187 181 179 180 181 158 141 153 163 158 134 124 133 132 134 136 135 141 153 157 149
309 310 317 316 308 301 291 283 277 272 271 273 272 271 271 270 269 270 272 269 267 267 264 257 251 246 239 237 239 239 238 238 239 239 238 238 238 236 235 236 237 239 242 242 240 241 238 231 230 232 232 228 226 229 228 224 219 211 206 204 207 209 204 202 193 185 187 192 199 198 181 171 168 170 151 134 126 132 147 153 153 157 164 167 158
308 307 311 309 306 304 298 292 286 280 276 275 273 270 268 268 268 268 270 271 269 267 265 260 252 246 239 235 238 239 239 240 238 237 236 236 236 234 235 236 235 236 240 240 238 238 234 227 225 228 230 227 222 223 226 222 215 211 209 203 206 209 204 202 196 189 190 193 204 222 208 188 173 177 168 144 115 123 154 166 170 171 173 173 167
304 305 307 306 305 304 299 294 288 285 285 283 279 274 270 268 268 266 263 265 268 267 268 266 257 245 236 233 236 237 238 239 237 235 234 232 233 234 235 236 236 235 235 236 237 237 233 227 225 227 228 225 222 220 220 219 212 209 211 208 206 207 203 200 199 195 196 197 201 198 200 206 194 183 188 184 124 122 163 180 185 183 182 183 182
305 304 305 303 303 302 298 295 291 289 288 285 280 274 270 268 267 265 262 261 262 264 268 272 263 245 234 230 232 234 235 236 236 235 232 229 229 233 235 236 236 233 228 228 232 234 233 228 223 225 226 223 221 219 217 215 207 203 210 212 210 210 205 201 203 204 202 201 200 196 204 215 205 187 207 233 240 178 185 195 199 197 194 194 195
307 304 302 301 300 298 296 295 293 291 288 283 277 273 271 267 264 263 263 260 258 258 264 271 263 244 231 228 229 230 231 232 232 228 225 225 226 229 232 232 232 231 227 225 226 227 231 228 222 222 224 223 220 218 218 214 205 201 206 210 211 212 208 205 207 210 208 205 210 214 219 225 220 198 197 239 260 257 223 213 212 207 203 204 206
306 303 302 302 301 299 296 293 291 289 286 281 276 273 269 266 264 262 261 259 257 255 259 269 261 240 227 224 223 224 225 226 224 219 218 220 221 223 226 226 227 229 228 227 226 226 227 225 220 219 222 222 217 215 217 217 211 207 207 209 211 210 209 209 210 211 212 212 220 227 223 235 244 231 224 251 253 246 240 229 220 213 209 208 212
305 304 304 304 304 300 295 292 290 288 286 282 278 273 266 263 264 265 264 263 258 251 256 268 257 233 222 219 219 219 218 217 217 216 218 220 221 222 223 223 225 227 225 224 225 228 228 222 218 220 222 220 216 215 218 221 221 218 215 213 213 213 213 214 215 215 218 219 226 230 226 234 241 245 260 266 247 239 240 232 223 218 213 212 216
305 305 305 305 303 300 296 293 291 289 287 284 278 270 264 262 262 264 267 269 264 252 255 269 253 228 220 218 215 214 212 212 214 216 219 221 221 221 221 222 225 227 226 224 224 225 225 221 218 220 222 219 214 216 221 224 226 223 219 217 215 216 217 217 220 223 226 226 227 229 235 236 236 246 263 259 248 244 238 231 224 220 218 217 219
306 306 306 305 303 301 298 296 294 293 292 287 275 261 256 257 257 260 264 267 266 257 256 269 257 229 219 214 210 208 209 211 212 214 218 219 217 216 217 219 222 226 228 228 227 224 222 221 220 217 218 217 214 218 224 226 226 224 221 219 217 216 218 220 223 226 226 226 227 230 237 242 244 251 257 253 250 247 240 234 226 221 220 220 221
307 308 308 307 306 304 301 301 300 299 297 289 271 249 243 247 250 256 262 260 262 261 259 269 262 235 218 212 209 207 209 211 213 216 218 216 214 214 216 218 221 224 228 230 231 229 226 226 225 218 214 215 216 220 224 224 224 222 221 219 216 215 218 221 226 227 224 224 228 233 237 242 244 246 250 252 251 247 241 236 228 222 220 220 223
308 310 311 311 309 306 305 305 304 302 299 286 265 244 237 240 243 251 261 258 259 262 261 268 266 243 225 217 213 209 210 212 214 218 218 215 214 215 216 219 222 224 227 227 227 230 230 230 227 219 212 214 220 224 223 222 222 222 220 218 214 214 218 224 228 226 223 224 230 236 241 242 241 242 247 250 249 245 239 233 229 224 220 220 225
311 313 314 314 311 309 310 309 304 302 296 279 258 243 236 237 236 239 251 256 258 262 258 262 267 252 234 225 220 213 213 216 216 218 220 218 214 214 216 221 223 225 226 225 222 223 227 228 224 217 213 215 220 225 224 221 222 223 221 219 215 215 220 226 229 226 223 225 232 238 241 240 240 242 246 249 248 242 236 231 229 224 222 223 228
313 315 316 316 312 312 315 311 303 298 289 272 256 242 236 236 234 233 240 248 254 257 254 256 260 253 241 234 228 219 216 218 216 216 219 217 213 214 219 221 222 223 223 222 220 221 222 223 219 215 215 217 221 226 225 222 223 223 221 219 216 217 223 227 227 225 223 227 232 237 239 239 240 242 247 249 245 237 231 229 228 226 226 228 231
314 316 317 318 314 313 317 313 304 295 284 272 260 249 243 241 238 234 235 241 245 247 249 252 252 248 244 240 232 223 220 220 217 217 218 216 214 217 221 222 222 222 221 219 219 220 220 218 214 212 214 217 221 226 226 225 225 223 221 219 217 218 223 225 224 223 224 228 232 235 237 239 242 244 248 249 241 232 228 227 226 227 228 230 233
315 317 318 320 317 315 318 317 308 296 285 274 264 258 252 246 240 236 237 243 243 241 244 248 246 244 243 239 232 224 223 223 221 219 217 216 217 220 225 228 227 225 225 224 221 221 222 218 214 214 216 217 220 224 225 226 226 221 219 219 219 221 223 221 220 222 224 227 230 234 237 240 243 246 250 249 238 228 225 226 226 226 228 231 234
316 318 321 325 322 316 318 319 309 296 290 279 268 264 260 251 242 233 233 240 240 236 236 238 239 239 238 235 231 227 224 225 224 220 216 216 219 223 227 230 228 225 227 228 223 221 222 219 216 219 222 221 222 223 221 222 223 218 214 216 218 221 222 220 219 220 222 226 230 234 238 242 246 250 252 246 234 225 224 225 226 227 230 233 237
318 321 325 331 329 318 314 317 309 295 293 289 278 271 262 254 244 231 224 229 234 232 231 231 231 232 232 231 232 229 225 224 224 220 217 219 225 228 228 228 227 226 227 228 226 223 221 219 218 221 224 222 223 226 222 220 222 219 215 217 219 219 218 217 218 220 222 225 229 234 240 244 249 252 250 240 229 224 223 224 226 229 233 237 240
321 323 328 336 336 322 310 316 313 294 287 286 280 274 262 251 244 234 225 224 231 233 231 231 230 228 228 229 229 227 224 223 225 226 224 225 229 232 231 227 227 229 231 231 229 225 220 218 217 217 217 215 217 223 223 220 222 223 220 217 217 217 217 216 217 220 223 226 231 237 241 246 250 250 243 234 229 226 226 227 229 232 235 239 243
324 325 329 338 343 331 310 315 319 298 284 280 278 279 268 253 241 232 227 225 230 233 232 233 233 229 227 225 225 225 224 224 227 232 234 233 231 230 229 228 229 233 235 233 231 228 221 219 220 218 215 214 216 219 219 216 219 223 222 220 219 220 220 218 219 223 226 227 231 236 241 245 246 242 237 233 232 233 232 232 234 237 240 243 246
325 327 331 339 347 341 317 314 322 306 286 279 279 278 268 255 242 234 235 237 237 236 235 234 236 233 228 227 228 230 230 230 231 232 235 236 232 226 223 226 229 232 233 232 231 229 224 221 221 219 217 217 218 217 215 213 214 218 220 221 222 225 225 222 221 224 227 229 231 236 240 242 241 238 237 238 238 239 238 238 240 243 246 248 251
324 327 332 339 348 347 325 311 312 302 289 283 281 278 269 259 246 236 236 242 244 239 234 232 235 235 233 233 235 238 239 239 236 232 231 231 228 225 223 224 226 227 228 229 229 228 226 222 218 217 218 220 219 216 215 217 219 223 227 225 221 222 226 226 224 222 223 227 231 236 238 238 237 236 236 239 241 243 243 245 249 251 252 254 254
324 327 332 339 346 348 331 311 303 296 290 287 285 281 275 266 259 251 243 246 251 245 235 231 234 235 235 236 237 240 244 244 239 232 230 230 227 225 226 225 225 225 225 223 224 227 227 223 215 212 216 220 218 218 221 223 224 227 231 227 219 215 217 221 223 223 223 225 228 231 233 234 235 236 237 240 244 248 250 252 254 255 256 257 257
326 329 334 340 346 345 331 310 301 299 296 292 288 282 273 263 263 267 257 249 252 252 244 240 240 240 240 239 237 238 240 241 238 231 228 231 230 225 224 224 224 225 224 220 222 227 228 224 217 214 217 217 216 218 222 225 226 224 222 219 216 216 216 216 219 222 224 226 228 229 231 233 237 239 242 245 249 252 253 252 253 257 258 259 260
330 332 336 342 347 347 330 303 297 301 303 300 293 287 277 263 256 256 254 254 256 257 251 245 244 245 244 242 240 238 236 237 239 235 229 230 232 229 225 222 221 223 224 222 224 227 230 228 222 220 220 216 213 217 216 216 221 223 219 214 214 218 221 221 224 226 227 228 230 231 235 240 243 244 245 246 249 251 252 254 258 263 263 262 260
332 335 338 343 351 352 337 307 300 304 309 310 305 301 294 272 257 252 253 258 259 257 253 249 248 249 246 243 240 237 234 235 237 236 231 229 230 229 227 225 224 225 225 226 224 223 229 230 225 224 222 213 209 216 215 212 216 219 218 214 213 218 224 226 228 227 225 228 231 234 238 241 243 244 244 244 245 249 253 258 262 266 269 268 266
334 337 341 347 356 0 356 340 323 319 322 320 309 302 299 276 260 262 266 268 265 261 259 259 260 255 247 242 240 236 235 236 236 235 234 231 229 229 229 227 226 226 227 228 224 221 225 227 224 223 219 208 206 215 217 214 212 215 218 216 213 215 220 223 223 222 225 231 235 238 240 242 244 245 246 248 252 256 259 262 265 269 272 273 270
339 341 346 356 7 15 23 9 352 350 340 322 308 298 289 265 249 251 257 263 265 266 265 265 265 259 250 243 240 239 239 239 236 233 232 229 226 227 231 230 229 231 231 227 224 225 224 221 220 218 213 209 210 214 218 219 215 214 218 218 217 219 220 222 222 223 228 233 235 238 240 243 246 249 252 257 260 261 263 266 267 269 271 273 271
342 347 355 10 24 40 42 23 21 34 6 302 297 313 300 283 264 253 253 256 255 254 255 255 255 252 249 246 245 244 244 243 239 234 231 230 227 225 225 227 229 233 232 225 223 228 223 215 212 211 208 213 216 214 218 222 219 218 219 217 219 223 224 225 224 223 230 235 236 237 240 245 251 255 259 261 262 264 266 267 266 267 270 272 272
348 355 5 20 45 65 60 61 82 99 118 147 120 25 336 319 304 286 274 265 256 251 252 257 262 260 252 250 248 244 240 238 238 237 235 233 229 223 220 223 226 230 232 228 227 231 226 215 212 208 206 214 219 215 216 218 217 219 220 218 220 224 227 231 232 233 238 243 245 246 249 254 256 257 260 261 261 263 265 266 267 268 270 270 271
354 359 5 22 50 72 78 92 106 108 107 106 70 20 359 344 329 318 303 284 267 261 255 240 257 257 251 249 251 247 242 240 237 235 233 229 225 220 216 219 224 225 227 229 229 229 226 221 219 215 212 219 224 219 219 222 220 218 219 221 224 228 231 236 242 246 246 245 247 250 254 258 258 258 261 262 260 262 265 267 268 268 269 270 265
354 360 5 17 36 55 82 121 137 122 68 45 16 3 359 349 335 328 320 311 294 274 244 129 141 230 243 243 249 245 234 231 231 229 226 222 224 222 214 214 220 221 222 227 226 222 219 220 224 223 217 219 227 230 231 232 225 219 221 226 229 232 237 239 242 248 248 248 249 250 252 255 256 257 260 260 261 264 266 267 267 267 266 262 252
355 3 9 10 10 359 322 254 242 269 345 344 343 357 6 6 5 1 347 338 330 313 297 66 62 2 352 299 270 268 252 240 239 232 218 211 216 220 217 219 225 225 224 224 218 215 216 219 223 223 215 214 231 240 237 234 232 227 225 228 232 237 242 241 240 244 248 249 249 249 250 252 254 256 258 259 262 265 266 266 264 260 254 249 248